This demonstration page uses our WeatherBlox Daily Observations layout. Learn more.

Left ArrowRight Arrow

38.80484, -77.04692

Hourly Observations for November 9, 2021

Temp ( °F °C ) Dew Point ( °F °C ) Humidity (%) Winds ( mph kmh ) Pressure ( in mb ) Visibility ( mi km ) Precip ( " mm )
12:52 am 00:52 Clear 49 9.4 44 6.7 83 83 SW 5 7 30.19 1023 10 16 N/A
1:52 am 01:52 Clear N/A N/A N/A N N/A N/A 10 16 N/A
2:52 am 02:52 Clear 46 7.8 44 6.7 93 93 N N/A 30.19 1023 10 16 N/A
3:52 am 03:52 Clear 45 7.2 38 3.3 77 77 N N/A 30.19 1022 10 16 N/A
4:52 am 04:52 Clear 44 6.7 40 4.4 85 85 N N/A 30.20 1023 10 16 N/A
5:52 am 05:52 Clear 43 6.1 40 4.4 89 89 N N/A 30.21 1023 10 16 N/A
6:52 am 06:52 Mostly Sunny 45 7.2 41 5 86 86 SW 3 6 30.21 1023 10 16 N/A
7:52 am 07:52 Mostly Sunny 49 9.4 44 6.7 83 83 S 3 6 30.22 1024 10 16 N/A
8:52 am 08:52 Mostly Sunny 52 11.1 46 7.8 80 80 N N/A 30.22 1023 10 16 N/A
9:52 am 09:52 Mostly Sunny 58 14.4 45 7.2 62 62 N N/A 30.21 1023 10 16 N/A
10:52 am 10:52 Mostly Sunny 62 16.7 44 6.7 52 52 N N/A 30.19 1022 10 16 N/A
11:52 am 11:52 Sunny 67 19.4 46 7.8 47 47 SSE 5 7 30.16 1021 10 16 N/A
12:52 pm 12:52 Sunny 71 21.7 44 6.7 38 38 N N/A 30.13 1020 10 16 N/A
1:52 pm 13:52 Mostly Sunny 71 21.7 45 7.2 39 39 S 9 15 30.10 1019 10 16 N/A
2:52 pm 14:52 Mostly Sunny 69 20.6 41 5 36 36 S 10 17 30.09 1019 10 16 N/A
3:52 pm 15:52 Sunny 69 20.6 39 3.9 33 33 S 7 11 30.09 1019 10 16 N/A
4:52 pm 16:52 Partly Cloudy 65 18.3 39 3.9 39 39 S 8 13 30.09 1019 10 16 N/A
5:52 pm 17:52 Partly Cloudy 62 16.7 43 6.1 50 50 S 7 11 30.08 1019 10 16 N/A
6:52 pm 18:52 Partly Cloudy 58 14.4 46 7.8 65 65 S 6 9 30.09 1019 10 16 N/A
7:52 pm 19:52 Partly Cloudy 58 14.4 45 7.2 62 62 SSW 3 6 30.07 1018 10 16 N/A
8:52 pm 20:52 Partly Cloudy 55 12.8 46 7.8 72 72 SSW 3 6 30.06 1018 10 16 N/A
9:52 pm 21:52 Partly Cloudy 53 11.7 46 7.8 77 77 N N/A 30.06 1018 10 16 N/A
10:52 pm 22:52 Partly Cloudy 52 11.1 46 7.8 80 80 N N/A 30.06 1018 10 16 N/A
11:52 pm 23:52 Partly Cloudy 51 10.6 45 7.2 80 80 N N/A 30.05 1018 10 16 N/A

Powered by AerisWeather